En Direct

LFST 021230Z AUTO 21006KT 170V240 9999 FEW014/// BKN036/// BKN049/// ///CB 19/17 Q1019 NOSIG


TAF LFST 021100Z 0212/0312 25012KT 9999 SCT025 BKN040 TEMPO 0212/0215 -RA FEW030TCU BECMG 0215/0218 34010KT TEMPO 0215/0221 3000 RA SCT020TCU BECMG 0221/0224 VRB03KT 1500 BCFG BKN002 TEMPO 0300/0309 0200 FG VV/// BECMG 0309/0312 9999 NSW SCT015

Nos Avions

7 avions disponibles et entretenus par un atelier agréé, permettant tous types de vols (formation, promenade, voyage…)

l'école de pilotage

PPL, LAPL, Vol de nuit, SEP… Toutes ces formations sont dispensées par nos instructeurs bénévoles.
Formation Théorique Mermoz via la FFA

Notre Plateforme

Nous sommes basés à l’aéroport de Strasbourg-Entzheim (LFST) en plein coeur de l’Alsace qui permet de voyager rapidement outre Rhin, mais également de profiter des paysages variés

Nos réseaux

Suivez-nous sur les réseaux sociaux